Wind_Speed
18 19 18 18 19 20 22 23 25 25 27 29 29 30 31 32 34 34 36 36 36 37 37 39 40 42 43 43 42 43 44 44 45 45 45 45 44 43 43 43 43 42 41 41
17 16 16 17 18 19 21 23 24 25 26 28 29 28 29 30 31 32 34 35 35 35 36 38 39 39 40 42 41 41 43 43 43 44 44 46 46 44 44 43 43 43 43 42
16 15 15 16 17 18 20 22 22 24 24 26 26 26 28 29 29 31 32 33 34 34 36 38 39 39 40 41 42 41 41 42 43 43 44 44 45 45 44 44 44 44 43 43
14 14 15 15 15 16 19 21 21 22 24 24 26 28 27 29 29 30 31 32 34 35 36 38 39 39 39 40 41 39 41 43 43 43 44 45 45 45 45 45 44 44 45 44
14 14 14 15 15 16 18 18 19 20 22 23 24 27 27 30 30 31 31 31 33 34 35 36 37 37 38 40 41 39 39 41 42 43 43 45 46 45 45 45 44 44 45 45
14 14 15 15 15 16 17 18 18 19 20 22 22 25 26 28 29 30 30 31 32 33 34 36 37 36 37 38 41 41 39 39 41 41 42 43 44 44 46 46 45 44 45 46
15 14 14 14 15 15 17 18 19 19 19 20 21 22 23 24 26 28 28 29 30 32 33 34 35 36 37 38 40 42 41 40 42 43 43 43 42 43 46 45 44 44 44 44
16 15 15 15 15 15 17 18 18 18 18 18 19 20 21 21 22 24 25 27 30 30 31 33 34 36 36 37 38 39 40 40 41 42 41 41 41 42 44 44 43 41 41 42
17 16 17 17 16 17 17 17 18 18 17 17 17 18 20 20 21 22 24 25 27 29 31 32 33 34 35 36 37 38 38 39 40 41 41 41 41 41 42 42 43 42 41 41
18 18 18 18 17 18 18 18 18 17 18 18 17 17 18 19 20 21 22 24 25 27 29 31 31 32 34 35 36 37 38 39 40 40 40 40 40 40 40 40 41 41 40 40
18 18 19 18 17 18 18 18 17 18 18 19 19 17 18 19 20 21 22 23 24 25 26 27 29 31 32 33 34 36 38 38 39 38 38 39 40 41 39 39 39 40 40 39
18 19 19 19 18 18 19 18 18 19 20 20 20 20 20 20 21 22 22 22 23 23 23 24 26 28 30 32 33 35 36 37 37 37 37 38 39 40 41 39 38 39 39 39
18 19 20 19 19 19 19 18 19 21 22 22 21 21 21 21 21 21 22 22 21 22 22 23 25 26 27 28 31 32 33 35 36 36 36 37 38 39 39 38 37 37 37 37
20 20 20 20 20 20 20 20 21 22 22 23 22 20 19 20 20 21 22 22 22 22 22 23 24 25 26 28 29 30 31 32 33 34 35 36 37 38 38 38 37 36 35 34
21 21 20 21 20 20 20 20 21 22 21 22 21 20 19 20 20 21 21 22 22 23 23 24 24 25 26 27 29 29 29 29 31 32 33 35 35 37 38 37 36 35 34 33
21 21 21 20 21 20 20 20 21 20 20 21 21 19 20 21 21 21 22 23 23 23 24 25 25 25 26 26 28 30 30 30 30 31 32 33 34 35 36 36 35 35 35 34
21 21 21 21 21 21 20 21 22 21 20 21 21 21 22 22 22 23 24 24 24 24 24 25 25 25 26 27 28 29 30 30 30 31 32 33 33 33 33 34 35 34 34 34
21 21 22 21 21 22 22 22 22 22 21 22 22 22 23 23 23 23 24 24 24 25 24 24 25 25 26 26 27 28 29 30 30 30 30 31 31 32 32 33 34 34 33 33
20 21 21 22 23 23 22 22 23 22 21 22 23 23 23 24 24 23 24 25 26 26 25 25 25 25 25 25 26 28 29 29 29 29 29 30 31 31 32 33 33 33 33 33
20 20 22 23 23 24 23 24 24 24 22 22 22 23 24 24 24 24 25 25 25 25 25 25 26 26 25 25 25 27 28 29 29 29 29 30 31 31 31 31 30 31 30 31
20 21 22 23 24 24 25 25 25 25 24 23 23 24 24 25 25 25 25 25 25 25 25 25 26 26 27 27 26 27 28 28 28 28 28 28 28 28 28 29 29 29 29 30
21 22 23 24 25 25 25 25 25 25 24 24 25 25 25 26 25 25 25 25 24 24 24 24 25 25 26 26 26 26 26 26 26 26 27 27 27 28 28 28 29 29 29 29
21 22 23 24 24 25 25 25 26 26 25 25 25 26 26 26 25 25 25 24 24 23 23 24 24 24 24 25 25 24 25 25 25 25 26 26 27 27 28 28 29 29 29 29
21 22 23 23 23 24 24 25 26 26 25 25 26 26 25 25 24 24 24 23 23 23 23 23 23 23 23 24 24 24 24 25 25 25 25 25 26 26 26 27 28 29 29 29
22 22 23 23 23 24 24 25 25 25 25 25 25 24 24 24 23 22 22 22 22 21 21 21 21 21 22 22 22 23 23 24 24 24 23 23 24 25 25 26 26 28 28 28
23 23 23 23 24 25 25 25 24 24 24 23 23 22 22 22 21 21 20 20 20 19 20 20 19 19 19 20 20 20 20 21 23 23 23 23 23 24 24 24 25 25 26 27
Wind_Direction
300 295 290 286 279 270 266 267 269 265 262 259 256 255 254 253 249 246 245 244 244 244 243 242 245 247 247 246 247 247 247 247 246 244 242 242 243 244 246 248 250 251 252 253
304 300 297 288 282 274 271 272 273 269 264 262 260 257 256 253 247 245 244 244 244 244 245 244 247 248 250 248 248 249 248 247 245 243 242 242 243 245 247 249 252 254 254 255
308 307 301 292 288 281 276 277 276 273 267 263 262 258 254 251 248 247 246 246 247 246 247 246 245 247 252 251 249 249 247 246 244 243 242 243 244 245 246 247 251 254 255 256
309 307 303 297 293 289 285 281 278 274 269 265 264 264 257 253 249 249 248 249 248 248 248 246 246 248 251 252 250 250 247 243 244 245 244 246 245 246 247 248 251 253 255 255
314 308 303 298 295 289 291 287 280 276 272 269 267 267 262 257 251 250 251 251 250 249 249 248 248 251 251 251 249 248 246 243 245 245 246 247 247 247 247 248 251 252 253 254
315 310 306 301 297 293 293 291 284 281 278 276 273 271 268 264 260 257 256 254 251 250 250 251 249 252 252 251 249 246 247 245 245 245 247 247 248 248 248 249 251 253 253 254
316 312 308 303 300 297 294 292 290 287 282 281 283 280 275 270 264 262 258 255 252 252 254 252 251 253 254 254 252 249 249 248 248 248 248 248 248 249 248 249 251 252 253 253
319 317 313 308 304 304 300 295 290 289 287 286 288 284 280 277 271 267 262 256 253 254 255 253 253 255 256 255 252 250 250 250 250 249 249 248 248 249 249 248 249 250 252 255
320 319 317 315 308 305 303 299 295 291 294 295 291 286 283 278 275 272 267 260 257 256 256 256 254 254 256 255 252 250 249 249 250 249 249 249 249 249 248 247 249 251 254 257
319 321 318 318 315 310 308 305 299 294 296 295 291 287 285 283 277 272 268 264 260 259 257 256 254 255 256 255 251 250 251 251 250 251 250 249 249 249 248 247 249 251 255 258
318 320 321 320 316 314 311 306 300 298 297 297 293 290 287 284 278 273 270 268 265 263 262 258 256 256 258 256 253 251 252 253 251 251 250 249 249 248 249 248 250 252 255 257
314 315 317 318 316 314 313 306 299 298 299 297 292 289 285 280 279 278 275 272 269 266 265 263 260 259 259 257 254 253 252 252 251 251 251 251 250 249 250 252 254 254 255 258
312 313 314 315 314 315 313 309 302 297 297 294 291 289 285 281 279 278 277 274 271 266 263 262 261 260 259 258 255 255 253 251 252 252 252 251 249 249 250 252 253 253 255 257
310 311 312 313 314 314 313 311 307 302 296 291 290 289 285 281 277 275 274 272 270 268 266 263 261 260 260 258 257 257 255 254 253 252 252 250 249 249 249 252 253 253 255 256
306 309 311 312 311 312 312 311 309 304 299 294 291 287 285 283 281 278 275 273 269 269 268 266 267 264 263 262 260 260 259 257 254 252 251 249 250 250 250 251 251 253 254 256
302 305 308 309 309 310 311 310 309 306 301 298 293 287 286 284 284 283 280 278 274 273 268 267 268 266 264 263 261 260 259 257 255 251 249 248 249 251 251 251 251 253 255 256
300 301 304 306 307 309 311 311 308 304 304 301 295 290 287 286 283 281 280 279 278 277 273 269 268 268 268 265 263 260 258 256 254 252 251 249 248 251 251 251 252 253 256 258
297 299 301 304 307 308 314 313 309 304 303 301 295 289 288 287 287 282 280 280 278 278 275 269 266 265 266 266 264 260 259 256 254 252 250 250 250 250 252 252 254 255 256 258
298 299 300 302 305 309 313 313 311 308 305 302 299 292 289 287 286 283 281 279 278 278 276 272 269 266 265 265 264 261 258 255 253 251 250 249 251 253 255 255 256 256 256 258
298 299 301 303 305 309 312 312 310 308 305 304 301 296 290 289 286 285 282 279 277 276 276 274 271 269 267 266 265 262 258 255 252 250 248 250 252 254 255 253 253 254 256 258
299 300 301 304 304 307 311 310 309 306 305 303 299 298 294 290 289 287 283 280 277 275 275 273 271 269 267 265 266 263 258 254 250 248 246 247 248 250 251 250 252 255 257 259
297 300 301 304 304 306 308 308 307 305 303 301 299 297 295 291 289 287 284 282 279 277 277 274 271 269 268 266 265 263 258 253 248 247 247 247 248 250 251 251 253 256 259 261
297 300 302 305 307 308 307 306 305 303 300 299 298 296 294 292 291 288 285 283 280 278 277 274 272 270 269 267 264 261 259 255 251 250 251 251 252 251 251 252 254 256 258 261
296 299 302 306 308 308 307 306 304 301 298 297 297 297 295 293 290 287 285 283 279 276 275 275 273 271 270 268 264 262 260 256 253 253 253 252 252 251 253 254 255 256 258 261
293 296 300 304 307 308 308 307 305 302 298 297 298 298 297 295 292 290 287 283 280 278 275 275 274 271 270 270 266 263 260 257 254 253 252 252 252 252 252 254 256 258 260 262
290 295 299 302 305 307 309 309 307 303 300 298 298 298 297 298 295 293 290 287 283 280 278 275 275 273 271 270 267 264 262 257 253 251 253 254 255 254 254 256 259 262 265 265
Height
5684 5683 5681 5679 5678 5677 5677 5677 5677 5677 5676 5676 5676 5677 5678 5679 5680 5682 5685 5688 5691 5694 5697 5699 5700 5702 5703 5705 5708 5710 5712 5715 5717 5721 5725 5729 5732 5736 5739 5741 5744 5745 5747 5748
5681 5679 5677 5674 5673 5672 5671 5671 5670 5670 5669 5668 5669 5669 5670 5671 5672 5674 5676 5679 5682 5685 5687 5690 5692 5692 5694 5696 5698 5701 5703 5705 5707 5711 5716 5720 5723 5726 5730 5733 5735 5736 5738 5739
5677 5675 5672 5670 5668 5667 5666 5665 5665 5664 5663 5662 5662 5663 5663 5664 5665 5666 5668 5671 5674 5676 5679 5681 5682 5683 5685 5687 5689 5691 5694 5696 5699 5702 5706 5710 5714 5717 5720 5723 5725 5727 5728 5730
5673 5671 5669 5666 5664 5663 5662 5661 5659 5658 5657 5656 5656 5655 5657 5658 5659 5660 5662 5663 5666 5668 5669 5671 5673 5675 5676 5678 5679 5681 5684 5687 5690 5693 5698 5701 5704 5708 5710 5713 5715 5717 5719 5721
5670 5668 5665 5663 5661 5659 5658 5656 5655 5653 5651 5651 5650 5648 5651 5651 5651 5654 5655 5656 5658 5659 5660 5662 5664 5666 5667 5668 5669 5672 5675 5679 5682 5685 5688 5691 5695 5698 5701 5703 5705 5707 5709 5711
5667 5664 5661 5659 5657 5655 5653 5652 5650 5648 5646 5645 5645 5642 5642 5643 5644 5646 5647 5648 5649 5650 5652 5653 5655 5657 5658 5659 5661 5663 5666 5670 5672 5675 5677 5681 5685 5688 5691 5694 5695 5697 5699 5701
5663 5661 5658 5656 5654 5652 5649 5648 5645 5643 5641 5640 5639 5636 5637 5636 5637 5637 5638 5640 5641 5642 5643 5645 5646 5648 5650 5651 5653 5655 5658 5661 5663 5666 5668 5672 5674 5677 5681 5684 5686 5688 5690 5692
5660 5658 5655 5652 5650 5648 5645 5643 5641 5639 5637 5636 5634 5632 5633 5631 5631 5630 5631 5632 5633 5634 5635 5636 5638 5640 5641 5642 5644 5646 5649 5651 5653 5656 5659 5662 5665 5667 5670 5673 5676 5678 5680 5682
5656 5654 5651 5648 5646 5644 5641 5639 5637 5635 5632 5631 5629 5628 5628 5626 5625 5625 5625 5626 5626 5627 5628 5628 5629 5631 5632 5633 5635 5637 5640 5642 5644 5646 5649 5652 5655 5657 5660 5663 5666 5668 5670 5672
5653 5650 5648 5644 5642 5639 5638 5635 5633 5631 5628 5626 5626 5624 5624 5622 5621 5620 5620 5620 5620 5620 5621 5621 5622 5623 5624 5625 5626 5629 5631 5633 5635 5637 5639 5642 5645 5647 5650 5654 5656 5658 5660 5662
5649 5647 5644 5641 5638 5636 5634 5632 5628 5626 5624 5622 5620 5623 5619 5617 5616 5615 5614 5614 5613 5614 5614 5614 5614 5615 5616 5617 5618 5620 5622 5624 5626 5628 5630 5633 5635 5638 5640 5644 5646 5649 5651 5653
5644 5643 5640 5638 5635 5632 5629 5627 5625 5623 5620 5618 5616 5619 5615 5612 5610 5609 5608 5607 5607 5607 5607 5607 5608 5608 5609 5610 5611 5613 5614 5616 5618 5619 5621 5623 5626 5628 5631 5634 5637 5639 5642 5644
5640 5638 5636 5634 5633 5629 5625 5623 5620 5618 5615 5613 5611 5614 5610 5607 5605 5604 5603 5602 5601 5601 5601 5601 5602 5602 5602 5603 5604 5605 5606 5608 5609 5611 5613 5615 5617 5619 5622 5625 5628 5630 5632 5635
5635 5633 5632 5630 5627 5623 5621 5618 5615 5612 5610 5608 5606 5605 5605 5602 5600 5599 5598 5597 5596 5595 5595 5595 5595 5595 5595 5596 5596 5597 5598 5600 5601 5603 5605 5606 5608 5611 5613 5616 5619 5621 5623 5625
5630 5628 5626 5624 5621 5618 5616 5614 5611 5607 5604 5602 5601 5599 5598 5596 5595 5594 5592 5591 5590 5589 5589 5588 5588 5588 5588 5588 5588 5589 5590 5591 5593 5594 5596 5598 5600 5602 5604 5607 5609 5611 5614 5616
5624 5623 5621 5619 5616 5613 5611 5608 5605 5602 5599 5596 5594 5593 5592 5590 5589 5588 5586 5585 5584 5583 5582 5581 5581 5580 5580 5580 5581 5581 5582 5583 5584 5586 5588 5590 5592 5594 5596 5598 5600 5603 5605 5607
5619 5617 5615 5614 5611 5608 5607 5604 5600 5597 5594 5591 5589 5588 5586 5585 5583 5582 5580 5579 5577 5576 5575 5574 5573 5573 5573 5573 5573 5573 5574 5575 5576 5577 5579 5581 5583 5585 5588 5590 5592 5594 5596 5599
5613 5611 5609 5607 5606 5603 5604 5598 5594 5591 5589 5586 5583 5581 5580 5578 5577 5575 5573 5572 5570 5569 5568 5567 5566 5565 5565 5565 5565 5565 5565 5566 5568 5569 5571 5573 5575 5577 5579 5581 5583 5586 5588 5590
5607 5605 5603 5601 5598 5597 5597 5592 5588 5585 5584 5580 5577 5575 5573 5571 5570 5569 5567 5565 5563 5562 5560 5559 5558 5558 5557 5557 5557 5557 5557 5558 5559 5561 5563 5565 5567 5569 5571 5573 5575 5577 5580 5582
5601 5600 5598 5595 5592 5591 5591 5586 5581 5580 5578 5575 5571 5569 5567 5565 5564 5564 5560 5558 5556 5555 5553 5552 5551 5550 5550 5550 5549 5549 5550 5550 5552 5553 5555 5557 5559 5561 5563 5566 5568 5569 5571 5573
5596 5594 5592 5589 5585 5584 5583 5579 5575 5574 5572 5568 5565 5562 5560 5558 5557 5555 5553 5551 5549 5548 5546 5545 5544 5543 5542 5542 5542 5542 5542 5543 5544 5546 5548 5549 5551 5554 5556 5558 5560 5562 5563 5565
5590 5588 5585 5582 5580 5580 5576 5572 5569 5567 5563 5560 5558 5556 5554 5552 5550 5547 5545 5544 5542 5541 5539 5538 5536 5536 5535 5535 5535 5535 5536 5536 5538 5539 5541 5542 5544 5546 5548 5550 5552 5554 5555 5556
5584 5583 5579 5578 5577 5573 5569 5565 5562 5559 5557 5554 5551 5549 5547 5545 5542 5540 5539 5537 5536 5534 5533 5531 5530 5529 5528 5528 5528 5529 5529 5530 5531 5532 5534 5535 5537 5539 5541 5542 5544 5546 5547 5548
5578 5575 5573 5571 5570 5566 5562 5558 5555 5552 5549 5547 5545 5542 5540 5538 5535 5533 5532 5530 5529 5527 5526 5525 5524 5523 5522 5522 5522 5522 5522 5523 5524 5526 5527 5529 5530 5531 5533 5534 5536 5538 5539 5540
5571 5569 5567 5565 5563 5559 5556 5552 5549 5546 5543 5540 5538 5536 5533 5531 5529 5527 5525 5524 5522 5521 5520 5519 5518 5517 5517 5516 5515 5516 5516 5517 5518 5519 5521 5522 5523 5524 5526 5527 5529 5530 5531 5532
5565 5563 5561 5559 5556 5553 5550 5546 5542 5539 5536 5534 5532 5530 5527 5525 5523 5521 5519 5518 5516 5515 5514 5513 5512 5511 5510 5510 5509 5509 5510 5511 5512 5513 5515 5515 5516 5518 5519 5521 5522 5523 5524 5524